Regional Weather Roundup
Issued by NWS

Home | Current Version | Previous Version | Text Only | Print | Product List | Glossary On
Versions: 1 2 3 4 5 6 7 8 9 10 11 12 13 14 15 16 17 18 19 20 21 22 23 24 25 26 27 28 29 30 31 32 33 34 35 36 37 38 39 40 41 42 43 44 45 46 47 48 49 50
000
ASUS44 KOUN 252110
RWROK

WEATHER ROUNDUP FOR OKLAHOMA
NATIONAL WEATHER SERVICE NORMAN OK
300 PM CST SUN JAN 25 2015

NOTE: "FAIR" INDICATES FEW OR NO CLOUDS BELOW 12,000 FEET WITH NO
      SIGNIFICANT WEATHER AND/OR OBSTRUCTIONS TO VISIBILITY.

OKZ001>007-009>012-014-015-017-252200-
NORTHWEST OKLAHOMA AND THE PANHANDLE

CITY           SKY/WX    TMP DP  RH WIND       PRES   REMARKS
GAGE           SUNNY     59  20  22 N24G36    30.09S
ENID/WOODRING  MOSUNNY   57  28  33 N30G38    30.02R
$$

OKZ016-021>023-033>039-044-045-252200-
SOUTHWEST OKLAHOMA

CITY           SKY/WX    TMP DP  RH WIND       PRES   REMARKS
LAWTON/REGL    SUNNY     63  18  17 N28G37    30.06R
LAWTON/FT SILL SUNNY     62  20  19 N28G36    30.05R
FREDERICK      SUNNY     63  20  19 N26G33    30.07S
CLINTON        SUNNY     59  24  26 N30G39    30.09R
HOBART         SUNNY     61  22  22 N30G39    30.08S
ALTUS AFB      SUNNY     63  24  22 NW21G31   30.10R
$$

OKZ018>020-024>031-252200-
CENTRAL OKLAHOMA

CITY           SKY/WX    TMP DP  RH WIND       PRES   REMARKS
OKLAHOMA CITY  MOSUNNY   59  23  25 N31G43    30.02R
OKC/WILEY POST SUNNY     59  25  27 N26G38    30.02R
OKC/TINKER AFB SUNNY     57  26  30 NW26G39   30.00R
STILLWATER     MOSUNNY   56  27  32 NW24G33   30.01R
GUTHRIE        SUNNY     57  26  30 NW17G30   30.03R
$$

OKZ008-013-054>072-252200-
NORTHEAST OKLAHOMA

CITY           SKY/WX    TMP DP  RH WIND       PRES   REMARKS
TULSA          CLOUDY    52  32  46 N29G38    29.97R
TULSA/JONES    CLOUDY    53  30  41 N17G29    29.97R
PONCA CITY     PTSUNNY   53  29  39 N20G31    30.02R
BARTLESVILLE   CLOUDY    51  32  48 VRB7G25   29.99R
MUSKOGEE       CLOUDY    53  31  42 NW23G33   29.96R
$$

OKZ032-040>043-046>053-073>077-252200-
SOUTH CENTRAL/SOUTHEAST OKLAHOMA

CITY           SKY/WX    TMP DP  RH WIND       PRES   REMARKS
ARDMORE/DWNTWN SUNNY     61  21  21 N13G24    30.02R
MCALESTER      LGT RAIN  57  30  35 NW22G33   29.97R
$$




USA.gov is the U.S. government's official web portal to all federal, state and local government web resources and services.